SCP
0 0 0 0 0 0 0 0 0 0 0 0 0 0 0 0 0 0 0 0 0 0 0 0 0 0 0 0 0 -0 -0 -0 0 0 0 0 0 0 0 0 0 0 0
0 0 0 0 0 0 0 0 0 0 0 0 0 0 0 0 0 0 0 0 0 0 0 0 0 0 0 0 0 0 -0 -0 -0 0 0 0 0 0 0 0 0 0 0
0 0 0 0 0 0 0 0 0 0 0 0 0 0 0 0 0 0 0 0 0 0 0 0 0 0 0 0 0 0 -0 -0 -0 0 0 0 0 0 0 0 0 0 0
0 0 0 0 0 0 0 0 0 0 0 0 0 0 0 0 0 0 0 0 0 0 0 0 0 0 0 0 0 0 0 -0 -0 -0 0 0 0 0 0 0 0 0 0
0 0 0 0 0 0 0 0 0 0 0 0 0 0 0 0 0 0 0 0 0 0 0 0 0 0 0 0 0 0 0 -0 -0 -0 0 0 0 0 0 0 0 0 0
0 0 0 0 0 0 0 0 0 0 0 0 0 0 0 0 0 0 0 0 0 0 0 0 0 0 0 0 0 0 0 -0 -0 -0 -0 0 0 0 0 0 0 0 0
0 0 0 0 0 0 0 0 0 0 0 0 0 0 0 0 0 0 0 0 0 0 0 0 0 0 0 0 0 0 0 -0 -0 -0 -0 -0 0 0 0 0 0 0 0
0 0 0 0 0 0 0 0 0 0 0 0 0 0 0 0 0 0 0 0 0 0 0 0 0 0 0 0 0 0 0 -0 -0 -0 -0 -0 0 0 0 0 0 0 0
0 0 0 0 0 0 0 0 0 0 0 0 0 0 0 0 0 0 0 0 0 0 0 0 0 0 0 0 0 0 0 -0 -0 -0 -0 -0 -0 0 0 0 0 0 0
0 0 0 0 0 0 0 0 0 0 0 0 0 0 0 0 0 0 0 0 0 0 0 0 0 0 0 0 0 0 0 -0 -0 -0 0 -0 0 0 0 0 0 0 0
0 0 0 0 0 0 0 0 0 0 0 0 0 0 0 0 0 0 0 0 0 0 0 0 0 0 0 0 0 0 0 -0 -0 -0 0 -0 0 0 0 0 0 0 0
0 0 0 0 0 0 0 0 0 0 0 0 0 0 0 0 0 0 0 0 0 0 0 0 0 0 0 0 0 0 0 0 -0 -0 0 -0 0 0 0 0 0 0 0
0 0 0 0 0 0 0 0 0 0 0 0 0 0 0 0 0 0 0 0 0 0 0 0 0 0 -0 -0 0 0 0 0 0 -0 0 -0 0 0 0 0 0 0 0
0 0 0 0 0 0 0 0 0 0 0 0 0 0 0 0 0 0 0 0 0 0 0 0 0 0 -0 -0 0 -0 0 -0 0 0 0 -0 0 0 0 0 0 0 0
0 0 0 0 0 0 0 0 0 0 0 0 0 0 0 0 0 0 0 0 0 0 0 0 0 0 0 -0 0 -0 -0 -0 -0 0 0 -0 0 0 0 0 0 0 0
0 0 0 0 0 0 0 0 0 0 0 0 0 0 0 0 0 0 0 0 0 0 0 0 0 0 0 -0 0 0 -0 -0 -0 0 0 -0 0 0 0 0 0 0 0
0 0 0 0 0 0 0 0 0 0 0 0 0 0 0 0 0 0 0 0 0 0 0 0 0 0 0 0 0 0 0 -0 -0 0 0 0 -0 0 0 0 0 0 0
0 0 0 0 0 0 0 0 0 0 0 0 0 0 0 0 0 0 0 0 0 0 0 0 0 0 0 0 0 0 0 0 -0 0 0 0 -0 0 0 0 0 0 0
0 0 0 0 0 0 0 0 0 0 0 0 0 0 0 0 0 0 0 -0 -0 0 0 0 0 0 0 0 0 0 0 0 -0 -0 0 0 0 0 0 0 0 0 0
0 0 0 0 0 0 0 0 0 0 0 0 0 0 0 0 0 0 0 -0 -0 0 0 0 0 0 0 0 0 0 0 0 -0 -0 0 0 0 0 0 0 0 0 0
0 0 0 0 0 0 0 0 0 0 0 0 0 0 0 0 0 0 0 -0 -0 0 0 0 0 0 0 0 0 0 0 0 0 -0 0 0 0 0 0 0 0 0 0
0 0 0 0 0 0 0 0 0 0 0 0 0 0 0 0 0 0 0 -0 -0 0 0 0 0 -0 0 0 0 0 0 0 0 0 0 0 0 0 0 0 0 0 0
0 0 0 0 0 0 0 0 0 0 0 0 0 0 0 0 0 -0 -0 -0 -0 0 0 0 -0 -0 0 0 0 0 0 0 0 0 0 0 0 0 0 0 0 0 0
0 0 0 0 0 0 0 0 0 0 0 0 0 0 0 0 0 -0 -0 -0 -0 0 0 -0 0 0 -0 0 0 0 0 0 0 0 0 0 0 0 0 0 0 0 0
0 0 0 0 0 0 0 0 0 0 0 0 0 0 0 0 0 -0 -0 -0 -0 -0 -0 -0 -0 0 -0 -0 0 0 0 0 0 0 0 0 0 0 0 0 0 0 0
0 0 0 0 0 0 0 0 0 0 0 0 0 0 0 0 -0 -0 -0 -0 0 0 -0 -0 -0 0 -0 0 0 0 0 0 0 0 0 0 0 0 0 0 0 0 0
Wind_Speed_500mb
22 16 11 15 24 38 44 51 59 59 60 67 75 81 88 93 97 100 103 102 98 89 76 71 74 78 77 83 84 85 79 99 80 63 96 99 101 103 94 100 95 108 123
29 20 13 15 29 39 44 50 53 55 60 65 71 78 88 96 102 108 110 110 108 103 95 86 87 84 86 87 83 76 85 91 100 75 63 65 76 101 106 94 98 101 93
31 19 11 17 29 39 44 47 52 56 60 66 74 81 88 97 107 112 116 117 111 105 97 84 84 82 81 81 79 73 76 71 108 97 51 38 38 77 95 93 90 94 86
29 18 10 16 26 36 42 45 52 54 60 66 74 82 92 104 105 114 118 122 116 102 89 79 59 69 73 83 81 71 77 79 80 100 102 74 53 79 52 95 100 91 83
32 21 11 16 25 33 38 47 55 55 61 66 72 82 89 95 105 113 118 121 117 99 88 74 69 71 68 65 82 75 78 77 70 73 101 114 95 110 80 72 87 95 82
34 21 12 14 24 31 38 49 59 60 64 71 75 82 91 97 107 112 120 125 116 98 91 87 76 75 71 57 67 80 77 84 82 66 74 105 93 99 105 90 97 101 94
36 23 12 14 25 33 41 55 62 67 72 74 77 84 92 99 101 107 118 122 113 101 98 78 69 70 74 69 56 69 74 71 75 70 82 92 114 66 107 93 89 88 85
34 19 10 18 26 33 44 57 66 74 75 76 79 85 90 96 101 106 114 114 103 101 86 75 82 78 67 70 63 57 82 67 79 69 74 90 99 99 93 105 104 80 85
32 19 13 19 25 34 48 62 69 72 75 78 83 88 94 97 101 107 112 107 100 98 81 87 70 63 66 72 69 54 77 75 76 73 64 81 108 62 107 110 119 117 63
32 21 15 20 27 41 52 57 63 71 77 81 86 93 98 98 101 107 109 101 95 92 91 87 82 81 79 73 71 66 55 78 72 62 62 79 101 106 70 113 127 129 114
35 21 17 20 32 42 50 59 66 72 79 84 90 97 102 101 101 104 105 98 93 90 92 89 81 75 78 72 76 67 51 72 68 64 57 70 107 106 67 114 122 121 106
33 21 14 23 35 44 54 62 69 74 80 86 95 100 105 105 102 105 101 97 94 86 89 86 78 83 79 69 74 72 53 63 70 55 69 59 91 63 83 116 124 124 112
28 19 17 26 38 48 57 64 70 76 81 88 94 100 103 104 103 105 103 102 93 90 87 76 78 77 73 67 71 78 64 41 54 55 62 59 84 70 68 98 117 111 107
31 21 19 29 38 48 59 67 72 78 83 90 96 100 103 103 104 104 105 103 92 87 80 75 74 74 72 66 64 76 76 57 48 54 64 52 65 69 60 117 113 112 111
29 23 20 26 37 52 62 68 74 79 86 92 96 100 100 101 105 106 104 101 90 83 77 75 71 71 73 66 60 69 79 74 57 53 68 55 55 59 66 114 116 114 124
32 22 18 26 42 55 63 69 74 79 87 92 96 99 101 104 106 105 103 94 84 78 72 68 67 67 69 65 63 59 67 76 70 60 62 67 59 63 38 124 115 125 134
30 17 18 31 44 51 58 67 73 80 86 91 95 99 103 105 106 103 98 88 82 77 71 69 64 67 68 66 60 63 64 76 83 78 63 74 54 78 32 117 112 112 131
20 9 18 31 40 48 56 64 70 76 84 91 95 97 100 103 103 101 94 88 85 82 77 74 68 70 67 65 59 60 61 72 90 91 84 80 63 64 53 91 124 126 130
14 8 19 29 39 48 56 63 70 76 82 88 93 94 96 100 99 99 96 88 85 81 77 69 69 72 67 58 57 55 63 72 78 87 97 87 80 65 54 55 127 136 136
13 9 18 28 39 47 54 62 69 75 81 87 90 91 91 92 96 97 92 85 81 78 70 63 59 65 67 56 52 52 56 69 72 87 81 81 81 61 52 56 131 140 138
14 12 18 28 39 46 53 60 66 73 79 83 86 86 86 91 93 92 88 83 79 72 68 61 61 58 65 62 42 51 59 64 63 69 63 79 77 70 64 70 129 129 135
19 15 19 26 36 45 53 57 62 71 76 80 81 82 84 89 91 92 88 81 72 72 70 69 68 64 56 52 52 36 50 58 63 61 67 78 74 65 71 79 114 139 137
23 17 19 25 32 40 50 57 60 67 73 76 78 80 83 86 89 91 85 79 71 69 74 72 71 77 68 58 38 36 47 57 58 60 69 75 67 56 73 75 116 140 136
24 17 17 24 30 39 45 52 59 63 68 72 74 77 81 85 88 88 80 70 67 74 73 72 77 83 81 66 49 46 49 37 54 64 73 70 58 56 66 83 120 132 134
25 16 17 21 27 37 43 49 54 60 65 68 70 73 76 81 86 86 77 68 63 60 62 69 71 78 89 75 70 71 60 41 33 44 50 62 64 65 70 96 119 126 124
25 18 15 17 25 32 40 44 48 53 59 63 66 70 73 76 81 87 93 79 61 57 51 51 63 71 61 62 72 76 58 37 45 51 56 64 74 68 78 96 104 115 125
Wind_Direction_500mb
188 204 246 297 326 341 347 349 348 346 344 344 342 339 336 334 332 331 331 330 325 316 303 294 292 291 292 292 294 296 297 273 262 306 237 229 232 228 232 225 234 228 230
189 204 246 305 333 342 345 348 348 344 346 342 339 336 333 331 331 332 331 330 327 320 314 286 281 287 288 290 286 292 298 281 268 273 258 209 210 220 222 224 217 207 210
195 203 243 311 332 338 343 345 345 343 341 338 335 332 329 329 330 330 330 331 327 321 314 304 281 277 282 283 279 285 289 288 266 263 283 218 212 200 204 204 201 202 198
194 202 247 308 328 334 338 337 341 340 338 336 334 332 332 328 330 329 330 330 327 321 317 312 296 280 279 278 272 279 283 291 277 273 261 294 247 190 184 204 211 201 203
198 201 249 311 324 332 335 336 339 338 336 334 333 330 327 325 327 328 329 331 325 321 318 310 285 280 272 279 273 273 275 280 260 266 267 270 292 202 195 186 192 204 204
191 205 250 309 328 332 332 334 338 337 334 334 331 328 327 326 326 329 329 328 323 320 310 309 298 279 268 275 273 270 268 278 271 262 254 259 285 198 193 190 189 197 204
192 207 252 315 333 333 334 336 336 335 336 331 330 327 327 325 325 328 327 324 321 316 314 310 304 290 265 267 279 263 262 275 279 263 266 260 263 281 193 190 186 186 187
195 217 275 322 329 331 335 334 337 336 332 329 327 325 324 325 325 326 323 320 316 315 317 306 298 290 276 268 272 272 260 266 279 255 265 249 257 285 203 190 182 178 183
202 222 280 317 322 330 334 336 333 331 330 328 326 325 325 326 325 324 322 320 315 314 301 304 298 290 277 258 268 281 258 263 277 255 273 252 251 313 200 193 187 183 175
209 225 274 303 321 332 332 332 331 330 330 328 328 328 326 326 325 323 322 319 315 307 309 304 286 279 276 263 260 266 268 263 278 278 269 252 251 263 239 197 195 192 186
211 229 269 308 330 327 330 333 333 332 331 331 329 328 326 327 325 324 324 320 314 307 308 304 298 288 277 267 255 259 269 265 271 279 257 262 260 259 255 185 188 187 183
207 231 273 319 319 324 332 335 334 334 333 331 329 328 327 326 325 327 325 319 315 309 305 300 293 287 282 274 255 255 261 261 263 273 255 254 249 298 204 185 186 187 185
218 250 269 308 319 328 333 334 335 334 332 330 329 327 327 326 328 329 325 322 317 312 311 299 295 291 284 275 257 253 252 254 275 268 264 261 251 260 209 188 186 187 185
218 246 275 310 322 329 333 336 334 334 331 330 329 327 328 330 330 330 328 322 319 315 313 304 297 291 284 275 265 254 251 254 256 268 267 262 253 257 296 196 189 187 182
219 238 277 309 323 332 334 332 333 332 330 330 329 330 331 332 333 331 329 325 323 318 312 304 301 294 285 274 263 258 252 252 252 267 270 265 252 254 267 191 189 183 186
217 230 277 318 333 335 332 331 331 331 330 330 332 333 334 335 333 333 330 326 327 321 313 308 304 299 291 282 265 263 262 251 249 252 266 260 243 240 264 202 199 200 193
204 233 310 330 333 330 329 329 331 331 330 332 334 336 338 336 335 335 332 331 331 323 317 312 307 301 297 292 276 266 260 253 247 250 254 263 251 244 281 204 207 210 212
202 265 315 329 326 327 328 329 331 331 333 334 337 339 338 337 336 337 334 338 333 325 317 315 314 306 297 292 276 263 256 258 248 245 249 257 263 243 242 204 205 200 205
202 267 321 324 324 327 327 329 332 334 335 337 339 341 341 339 339 341 340 340 329 326 319 316 315 311 304 292 280 258 244 249 252 245 249 251 257 236 234 216 189 199 204
196 268 310 321 322 324 328 331 333 334 338 339 341 344 342 342 344 346 342 340 332 325 319 315 322 320 313 298 280 261 248 249 254 243 241 247 249 250 220 213 199 195 196
215 271 304 318 321 324 328 334 335 336 339 340 343 344 346 348 350 346 347 341 333 328 328 322 317 325 326 323 282 257 246 249 251 251 238 247 245 251 219 207 201 206 200
217 256 294 314 321 326 330 336 338 338 339 343 344 347 352 355 353 351 351 343 340 333 331 331 326 321 322 329 317 273 240 240 246 241 244 245 244 240 218 212 202 201 204
225 253 295 313 321 330 333 337 340 339 342 345 347 352 357 359 360 358 353 343 343 336 336 331 326 324 326 319 334 300 268 245 244 245 248 250 246 237 229 219 203 202 206
222 251 288 310 327 333 339 340 340 343 345 347 351 356 359 2 4 5 0 346 343 343 336 334 331 331 323 318 325 321 304 285 245 246 251 253 248 229 233 212 199 201 202
219 241 281 309 329 335 342 341 345 347 349 352 356 359 3 5 7 8 8 353 348 345 338 337 337 329 321 317 317 311 300 285 274 267 266 251 240 237 230 200 194 202 206
218 239 275 310 329 338 342 345 350 352 352 355 359 4 5 8 10 10 11 20 4 358 354 347 346 333 323 321 318 313 294 264 249 249 254 244 238 227 209 194 192 193 198
Wind_Speed_850mb
22 16 11 15 24 38 44 51 59 59 60 67 75 81 88 93 97 100 103 102 98 89 76 71 74 78 77 83 84 85 79 99 80 63 96 99 101 103 94 100 95 108 123
29 20 13 15 29 39 44 50 53 55 60 65 71 78 88 96 102 108 110 110 108 103 95 86 87 84 86 87 83 76 85 91 100 75 63 65 76 101 106 94 98 101 93
31 19 11 17 29 39 44 47 52 56 60 66 74 81 88 97 107 112 116 117 111 105 97 84 84 82 81 81 79 73 76 71 108 97 51 38 38 77 95 93 90 94 86
29 18 10 16 26 36 42 45 52 54 60 66 74 82 92 104 105 114 118 122 116 102 89 79 59 69 73 83 81 71 77 79 80 100 102 74 53 79 52 95 100 91 83
32 21 11 16 25 33 38 47 55 55 61 66 72 82 89 95 105 113 118 121 117 99 88 74 69 71 68 65 82 75 78 77 70 73 101 114 95 110 80 72 87 95 82
34 21 12 14 24 31 38 49 59 60 64 71 75 82 91 97 107 112 120 125 116 98 91 87 76 75 71 57 67 80 77 84 82 66 74 105 93 99 105 90 97 101 94
36 23 12 14 25 33 41 55 62 67 72 74 77 84 92 99 101 107 118 122 113 101 98 78 69 70 74 69 56 69 74 71 75 70 82 92 114 66 107 93 89 88 85
34 19 10 18 26 33 44 57 66 74 75 76 79 85 90 96 101 106 114 114 103 101 86 75 82 78 67 70 63 57 82 67 79 69 74 90 99 99 93 105 104 80 85
32 19 13 19 25 34 48 62 69 72 75 78 83 88 94 97 101 107 112 107 100 98 81 87 70 63 66 72 69 54 77 75 76 73 64 81 108 62 107 110 119 117 63
32 21 15 20 27 41 52 57 63 71 77 81 86 93 98 98 101 107 109 101 95 92 91 87 82 81 79 73 71 66 55 78 72 62 62 79 101 106 70 113 127 129 114
35 21 17 20 32 42 50 59 66 72 79 84 90 97 102 101 101 104 105 98 93 90 92 89 81 75 78 72 76 67 51 72 68 64 57 70 107 106 67 114 122 121 106
33 21 14 23 35 44 54 62 69 74 80 86 95 100 105 105 102 105 101 97 94 86 89 86 78 83 79 69 74 72 53 63 70 55 69 59 91 63 83 116 124 124 112
28 19 17 26 38 48 57 64 70 76 81 88 94 100 103 104 103 105 103 102 93 90 87 76 78 77 73 67 71 78 64 41 54 55 62 59 84 70 68 98 117 111 107
31 21 19 29 38 48 59 67 72 78 83 90 96 100 103 103 104 104 105 103 92 87 80 75 74 74 72 66 64 76 76 57 48 54 64 52 65 69 60 117 113 112 111
29 23 20 26 37 52 62 68 74 79 86 92 96 100 100 101 105 106 104 101 90 83 77 75 71 71 73 66 60 69 79 74 57 53 68 55 55 59 66 114 116 114 124
32 22 18 26 42 55 63 69 74 79 87 92 96 99 101 104 106 105 103 94 84 78 72 68 67 67 69 65 63 59 67 76 70 60 62 67 59 63 38 124 115 125 134
30 17 18 31 44 51 58 67 73 80 86 91 95 99 103 105 106 103 98 88 82 77 71 69 64 67 68 66 60 63 64 76 83 78 63 74 54 78 32 117 112 112 131
20 9 18 31 40 48 56 64 70 76 84 91 95 97 100 103 103 101 94 88 85 82 77 74 68 70 67 65 59 60 61 72 90 91 84 80 63 64 53 91 124 126 130
14 8 19 29 39 48 56 63 70 76 82 88 93 94 96 100 99 99 96 88 85 81 77 69 69 72 67 58 57 55 63 72 78 87 97 87 80 65 54 55 127 136 136
13 9 18 28 39 47 54 62 69 75 81 87 90 91 91 92 96 97 92 85 81 78 70 63 59 65 67 56 52 52 56 69 72 87 81 81 81 61 52 56 131 140 138
14 12 18 28 39 46 53 60 66 73 79 83 86 86 86 91 93 92 88 83 79 72 68 61 61 58 65 62 42 51 59 64 63 69 63 79 77 70 64 70 129 129 135
19 15 19 26 36 45 53 57 62 71 76 80 81 82 84 89 91 92 88 81 72 72 70 69 68 64 56 52 52 36 50 58 63 61 67 78 74 65 71 79 114 139 137
23 17 19 25 32 40 50 57 60 67 73 76 78 80 83 86 89 91 85 79 71 69 74 72 71 77 68 58 38 36 47 57 58 60 69 75 67 56 73 75 116 140 136
24 17 17 24 30 39 45 52 59 63 68 72 74 77 81 85 88 88 80 70 67 74 73 72 77 83 81 66 49 46 49 37 54 64 73 70 58 56 66 83 120 132 134
25 16 17 21 27 37 43 49 54 60 65 68 70 73 76 81 86 86 77 68 63 60 62 69 71 78 89 75 70 71 60 41 33 44 50 62 64 65 70 96 119 126 124
25 18 15 17 25 32 40 44 48 53 59 63 66 70 73 76 81 87 93 79 61 57 51 51 63 71 61 62 72 76 58 37 45 51 56 64 74 68 78 96 104 115 125
Wind_Direction_850mb
188 204 246 297 326 341 347 349 348 346 344 344 342 339 336 334 332 331 331 330 325 316 303 294 292 291 292 292 294 296 297 273 262 306 237 229 232 228 232 225 234 228 230
189 204 246 305 333 342 345 348 348 344 346 342 339 336 333 331 331 332 331 330 327 320 314 286 281 287 288 290 286 292 298 281 268 273 258 209 210 220 222 224 217 207 210
195 203 243 311 332 338 343 345 345 343 341 338 335 332 329 329 330 330 330 331 327 321 314 304 281 277 282 283 279 285 289 288 266 263 283 218 212 200 204 204 201 202 198
194 202 247 308 328 334 338 337 341 340 338 336 334 332 332 328 330 329 330 330 327 321 317 312 296 280 279 278 272 279 283 291 277 273 261 294 247 190 184 204 211 201 203
198 201 249 311 324 332 335 336 339 338 336 334 333 330 327 325 327 328 329 331 325 321 318 310 285 280 272 279 273 273 275 280 260 266 267 270 292 202 195 186 192 204 204
191 205 250 309 328 332 332 334 338 337 334 334 331 328 327 326 326 329 329 328 323 320 310 309 298 279 268 275 273 270 268 278 271 262 254 259 285 198 193 190 189 197 204
192 207 252 315 333 333 334 336 336 335 336 331 330 327 327 325 325 328 327 324 321 316 314 310 304 290 265 267 279 263 262 275 279 263 266 260 263 281 193 190 186 186 187
195 217 275 322 329 331 335 334 337 336 332 329 327 325 324 325 325 326 323 320 316 315 317 306 298 290 276 268 272 272 260 266 279 255 265 249 257 285 203 190 182 178 183
202 222 280 317 322 330 334 336 333 331 330 328 326 325 325 326 325 324 322 320 315 314 301 304 298 290 277 258 268 281 258 263 277 255 273 252 251 313 200 193 187 183 175
209 225 274 303 321 332 332 332 331 330 330 328 328 328 326 326 325 323 322 319 315 307 309 304 286 279 276 263 260 266 268 263 278 278 269 252 251 263 239 197 195 192 186
211 229 269 308 330 327 330 333 333 332 331 331 329 328 326 327 325 324 324 320 314 307 308 304 298 288 277 267 255 259 269 265 271 279 257 262 260 259 255 185 188 187 183
207 231 273 319 319 324 332 335 334 334 333 331 329 328 327 326 325 327 325 319 315 309 305 300 293 287 282 274 255 255 261 261 263 273 255 254 249 298 204 185 186 187 185
218 250 269 308 319 328 333 334 335 334 332 330 329 327 327 326 328 329 325 322 317 312 311 299 295 291 284 275 257 253 252 254 275 268 264 261 251 260 209 188 186 187 185
218 246 275 310 322 329 333 336 334 334 331 330 329 327 328 330 330 330 328 322 319 315 313 304 297 291 284 275 265 254 251 254 256 268 267 262 253 257 296 196 189 187 182
219 238 277 309 323 332 334 332 333 332 330 330 329 330 331 332 333 331 329 325 323 318 312 304 301 294 285 274 263 258 252 252 252 267 270 265 252 254 267 191 189 183 186
217 230 277 318 333 335 332 331 331 331 330 330 332 333 334 335 333 333 330 326 327 321 313 308 304 299 291 282 265 263 262 251 249 252 266 260 243 240 264 202 199 200 193
204 233 310 330 333 330 329 329 331 331 330 332 334 336 338 336 335 335 332 331 331 323 317 312 307 301 297 292 276 266 260 253 247 250 254 263 251 244 281 204 207 210 212
202 265 315 329 326 327 328 329 331 331 333 334 337 339 338 337 336 337 334 338 333 325 317 315 314 306 297 292 276 263 256 258 248 245 249 257 263 243 242 204 205 200 205
202 267 321 324 324 327 327 329 332 334 335 337 339 341 341 339 339 341 340 340 329 326 319 316 315 311 304 292 280 258 244 249 252 245 249 251 257 236 234 216 189 199 204
196 268 310 321 322 324 328 331 333 334 338 339 341 344 342 342 344 346 342 340 332 325 319 315 322 320 313 298 280 261 248 249 254 243 241 247 249 250 220 213 199 195 196
215 271 304 318 321 324 328 334 335 336 339 340 343 344 346 348 350 346 347 341 333 328 328 322 317 325 326 323 282 257 246 249 251 251 238 247 245 251 219 207 201 206 200
217 256 294 314 321 326 330 336 338 338 339 343 344 347 352 355 353 351 351 343 340 333 331 331 326 321 322 329 317 273 240 240 246 241 244 245 244 240 218 212 202 201 204
225 253 295 313 321 330 333 337 340 339 342 345 347 352 357 359 360 358 353 343 343 336 336 331 326 324 326 319 334 300 268 245 244 245 248 250 246 237 229 219 203 202 206
222 251 288 310 327 333 339 340 340 343 345 347 351 356 359 2 4 5 0 346 343 343 336 334 331 331 323 318 325 321 304 285 245 246 251 253 248 229 233 212 199 201 202
219 241 281 309 329 335 342 341 345 347 349 352 356 359 3 5 7 8 8 353 348 345 338 337 337 329 321 317 317 311 300 285 274 267 266 251 240 237 230 200 194 202 206
218 239 275 310 329 338 342 345 350 352 352 355 359 4 5 8 10 10 11 20 4 358 354 347 346 333 323 321 318 313 294 264 249 249 254 244 238 227 209 194 192 193 198